• Processing (Info)

  • MPEC 2006-Y23 : 2006 YN

    The following Minor Planet Electronic Circular may be linked-to from your own Web pages, but must not otherwise be redistributed electronically.

    A form allowing access to any MPEC is at the bottom of this page.


    Read MPEC 2006-Y22 Read MPEC 2006-Y24


    M.P.E.C. 2006-Y23                                Issued 2006 Dec. 19, 22:59 UT
    
         The Minor Planet Electronic Circulars contain information on unusual
             minor planets and routine data on comets.  They are published
       on behalf of Commission 20 of the International Astronomical Union by the
              Minor Planet Center, Smithsonian Astrophysical Observatory,
                              Cambridge, MA 02138, U.S.A.
    
                 Prepared using the Tamkin Foundation Computer Network
    
                                  MPC@CFA.HARVARD.EDU
              URL http://cfa-www.harvard.edu/iau/mpc.html  ISSN 1523-6714
    
                                        2006 YN
    
    Observations:
         K06Y00N* C2006 12 16.51086 08 14 12.77 +02 21 13.5          17.7 R EY023644
         K06Y00N  C2006 12 16.52066 08 14 12.83 +02 21 43.5          17.5 R EY023644
         K06Y00N  C2006 12 16.53138 08 14 12.90 +02 22 16.3          17.9 R EY023644
         K06Y00N  C2006 12 19.40817208 14 41.94 +04 53 35.8          18.9   EY023H55
         K06Y00N  C2006 12 19.40913208 14 41.94 +04 53 39.0          18.9   EY023H55
         K06Y00N  C2006 12 19.41012408 14 41.93 +04 53 42.0          18.9   EY023H55
         K06Y00N  C2006 12 19.41106508 14 41.93 +04 53 45.2          19.0   EY023H55
         K06Y00N  C2006 12 19.41200608 14 41.93 +04 53 48.3          19.0   EY023H55
         K06Y00N  C2006 12 19.41331008 14 41.92 +04 53 52.5          19.0   EY023H55
         K06Y00N  C2006 12 19.41457108 14 41.91 +04 53 56.8          19.0   EY023H55
         K06Y00N  C2006 12 19.41584408 14 41.91 +04 54 00.8          19.0   EY023H55
         K06Y00N  C2006 12 19.93742 08 14 45.54 +05 22 28.6          17.9 R EY023143
         K06Y00N  C2006 12 19.94385 08 14 45.52 +05 22 49.8          17.9 R EY023143
    
    Observer details:
    143 Gnosca.  Observer S. Sposetti.  0.40-m f/4 reflector + CCD.
    644 Palomar Mountain/NEAT.  Observers M. Brown, R. Bambery, K. Lawrence,
        M. Hicks, E. Helin, R. Thicksten.  1.2-m Schmidt + CCD.
    H55 Astronomical Research Observatory, Charleston.  Observer R. Holmes.
        Measurers R. Holmes, J. Pritchett.  0.81-m f/4.0 astrograph + CCD.
    
    Orbital elements:
    2006 YN
    Epoch 2007 Apr. 10.0 TT = JDT 2454200.5                 MPC
    M  30.44105              (2000.0)            P               Q
    n   0.21030759     Peri.  325.28830     +0.20274017     -0.85177959
    a   2.8004818      Node   108.56532     +0.97350301     +0.12203226
    e   0.5091125      Incl.   30.63724     +0.10577482     +0.50948960
    P   4.69           H   17.7           G   0.15           U   8
    Residuals in seconds of arc
    061216 644  0.5+  0.1-    061219 H55  0.1+  0.2-    061219 H55  0.3-  0.0
    061216 644  0.0   0.0     061219 H55  0.0   0.0     061219 143  0.2+  0.0
    061216 644  0.4-  0.1+    061219 H55  0.0   0.0     061219 143  0.1-  0.0
    061219 H55  0.2+  0.0     061219 H55  0.1-  0.0
    061219 H55  0.2+  0.1+    061219 H55  0.3-  0.2+
    
    Ephemeris:
    2006 YN                  a,e,i = 2.80, 0.51, 31                  q = 1.3747
    Date    TT    R. A. (2000) Decl.     Delta      r     Elong.  Phase     V
    2006 12 11    08 12.18   -01 59.4    0.549    1.399   129.3    33.0    18.5
    2006 12 21    08 14.80   +06 21.6    0.509    1.421   142.3    25.0    18.2
    2006 12 31    08 12.64   +16 24.6    0.494    1.451   157.1    15.3    17.8
    2007 01 10    08 06.43   +26 47.2    0.509    1.486   169.1     7.2    17.6
    2007 01 20    07 57.98   +35 47.7    0.556    1.527   164.4    10.0    18.0
    2007 01 30    07 50.13   +42 27.9    0.632    1.573   152.5    16.8    18.6
    2007 02 09    07 45.57   +46 49.2    0.729    1.622   141.5    22.2    19.1
    2007 02 19    07 45.78   +49 20.9    0.842    1.674   132.2    26.0    19.6
    2007 03 01    07 51.08   +50 34.3    0.967    1.729   124.1    28.3    20.1
    2007 03 11    08 00.79   +50 53.1    1.100    1.786   117.0    29.7    20.5
    2007 03 21    08 13.87   +50 33.0    1.241    1.844   110.6    30.4    20.8
    2007 03 31    08 29.39   +49 44.4    1.386    1.903   104.7    30.5    21.1
    2007 04 10    08 46.43   +48 34.5    1.535    1.964    99.3    30.2    21.4
    2007 04 20    09 04.36   +47 07.8    1.688    2.024    94.1    29.7    21.7
    2007 04 30    09 22.71   +45 28.2    1.842    2.085    89.1    28.9    21.9
    
    Timothy B. Spahr             (C) Copyright 2006 MPC           M.P.E.C. 2006-Y23
    

    Read MPEC 2006-Y22 Read MPEC 2006-Y24


    MPEC number:

    Enter an MPEC number in one of the following forms:

    • 1997-B01 (the full form)
    • J97B01 (the packed version of the full form)
    • B01 (the abbreviated form)